Location: New Frontier Mobile Home Park
(32.8448°N, 116.9675°W)
Time: 23:05:55
(UTC+00:00)

Resurs 01 Rocket - Pass Details

Date: 14 July 2020
Orbit: 634 x 644 km, 98.0° (Epoch: 05 August)

Event Time Altitude Azimuth Distance (km) Brightness Sun altitude
Exits shadow 04:46:24 26° 190° (S) 1,246 2.8 -19.5°
Maximum altitude 04:48:42 57° 259° (W) 746 2.1 -19.9°
Drops below altitude 10° 04:53:02 10° 339° (NNW) 2,024 5.2 -20.5°
Sets 04:55:17 0° 343° (NNW) 2,935 6.1 -20.9°
